Regional Weather Roundup
Issued by NWS Portland, ME

Current Version | Previous Version | Text Only | Print | Product List | Glossary Off
Versions: 1 2 3 4 5 6 7 8 9 10 11 12 13 14 15 16 17 18 19 20 21 22 23 24 25 26 27 28 29 30 31 32 33 34 35 36 37 38 39 40 41 42 43 44 45 46 47 48 49 50
751 ASUS41 KGYX 111210 RWRGYX WEATHER ROUNDUP FOR MAINE AND NEW HAMPSHIRE NATIONAL WEATHER SERVICE GRAY ME 700 AM EST MON DEC 11 2017 MEZ002-005-006-010-012-015-018-020-021-024-026-027-029-111300- MAINE CITY SKY/WX TMP DP RH WIND PRES REMARKS PORTLAND CLOUDY 31 23 72 SW8 29.91R 6HR MIN TEMP: 30; 6HR MAX TEMP: 32; SANFORD CLOUDY 28 23 81 SW3 29.91S BAR HARBOR CLOUDY 25 23 92 CALM 29.91R WISCASSET CLOUDY 28 25 88 SW3 29.91R 6HR MIN TEMP: 23; 6HR MAX TEMP: 30; ROCKLAND CLOUDY 28 25 88 CALM 29.90R FRYEBURG CLOUDY 29 23 78 S3 29.87R 6HR MIN TEMP: 26; 6HR MAX TEMP: 31; LEWISTONAUBURN CLOUDY 27 24 89 S5 29.88R AUGUSTA CLOUDY 26 21 81 CALM 29.88R 6HR MIN TEMP: 23; 6HR MAX TEMP: 28; WATERVILLE CLOUDY 19 17 92 CALM 29.83S BANGOR CLOUDY 22 19 89 S3 29.89R 6HR MIN TEMP: 13; 6HR MAX TEMP: 22; GREENVILLE N/A 19 16 88 CALM 29.77R 6HR MIN TEMP: 16; 6HR MAX TEMP: 19; MILLINOCKET CLOUDY 15 13 91 CALM 29.87R 6HR MIN TEMP: 12; 6HR MAX TEMP: 19; HOULTON CLOUDY 10 8 92 CALM 29.82S 6HR MIN TEMP: 5; 6HR MAX TEMP: 15; PRESQUE ISLE FLURRIES 11 7 84 N12 29.89R WCI -3 6HR MIN TEMP: 10; 6HR MAX TEMP: 16; 6HR PCP: TRACE; FRENCHVILLE FLURRIES 5 0 79 N10 29.85R WCI -10 6HR MIN TEMP: 5; 6HR MAX TEMP: 11; 6HR PCP: TRACE; CARIBOU LGT SNOW 10 5 80 N10 29.87R WCI -4 6HR MIN TEMP: 10; 6HR MAX TEMP: 16; 6HR PCP: 0.04; $$ NHZ002-005-008-009-011-012-014-111300- NEW HAMPSHIRE CITY SKY/WX TMP DP RH WIND PRES REMARKS PORTSMOUTH CLOUDY 31 22 69 SW5 29.91R ROCHESTER CLOUDY 30 22 72 SW3 29.90R 6HR MIN TEMP: 28; 6HR MAX TEMP: 30; NASHUA CLOUDY 29 23 78 CALM 29.94R MANCHESTER CLOUDY 31 21 66 S3 29.92R 6HR MIN TEMP: 29; 6HR MAX TEMP: 32; CONCORD CLOUDY 30 21 69 SW3 29.91R 6HR MIN TEMP: 26; 6HR MAX TEMP: 31; LACONIA CLOUDY 29 22 75 S10 29.88S WCI 20 PLYMOUTH CLOUDY 26 23 90 CALM 29.87S BERLIN CLOUDY 26 20 77 CALM 29.81S 6HR MIN TEMP: 15; 6HR MAX TEMP: 26; WHITEFIELD CLOUDY 23 20 88 CALM 29.82R 6HR MIN TEMP: 20; 6HR MAX TEMP: 27; JAFFREY CLOUDY 28 23 81 S8 29.89R 6HR MIN TEMP: 26; 6HR MAX TEMP: 28; LEBANON CLOUDY 30 21 69 S8 29.87R 6HR MIN TEMP: 29; 6HR MAX TEMP: 32; MT WASHINGTON SNOW 5 5 100 W43 N/A VSB 0 WCI -22 6HR MIN TEMP: 5; 6HR MAX TEMP: 6; 6HR PCP: 0.03; $$ VTZ005-007-008-111300- VERMONT CITY SKY/WX TMP DP RH WIND PRES REMARKS ST JOHNSBURY N/A 26 24 92 MISG 29.83R MONTPELIER LGT SNOW 27 22 81 W6 29.86R BURLINGTON LGT SNOW 21 16 81 N10 29.93R WCI 10 $$ MAZ007-012-024-CTZ003-RIZ002-NYZ038-NYZ072-111300- SOUTHERN NEW ENGLAND AND NY CITY SKY/WX TMP DP RH WIND PRES REMARKS BOSTON CLOUDY 32 23 69 SW15 29.96R WORCESTER CLOUDY 27 20 75 SW12 29.91R WCI 17 NANTUCKET CLOUDY 40 29 64 W15G22 29.98R PROVIDENCE CLOUDY 33 23 66 SW8 29.99R HARTFORD CLOUDY 31 23 72 SW7 29.97R ALBANY CLOUDY 29 21 72 S6 29.94R NEW YORK CITY MOCLDY 35 24 64 SW9 30.01S $$ ANZ081-ANZ082-ANZ150-NHZ014-MEZ023>029-111300- COASTAL MARINE OBSERVATIONS STATION/POSITION TIME TEMP WIND PRES WAVE AIR SEA DIR/SP/G HT/PER (UTC) (F) (DEG/KT/KT) (MB) (FT/S) MOUNT DESERT ROC 1200 39 250/ 18/ 23 1012.6R MATINICUS ROCK 1100 39 250/ 21/ 23 1011.6R ISLE OF SHOALS 1100 34 250/ 17/ 18 1012.7R JEFFREYS LEDGE 1136 48 N/A 4/11 GEORGES BANK BUO 1050 46 51 1015.2 10/11 $$ .............KEY.............. WCI - WIND CHILL TC - TEMPERATURE IN CELSIUS VSB - VISIBILITY IN MILES HX - HEAT INDEX FAIR- INDICATES FEW OR NO CLOUDS BELOW 12,000 FT, WITH NO SIGNIFICANT WEATHER AND/OR OBSTRUCTIONS TO VISIBILITY.

USA.gov is the U.S. government's official web portal to all federal, state and local government web resources and services.